Time,TemperatureF,DewpointF,PressureIn,WindDirection,WindDirectionDegrees,WindSpeedMPH,WindSpeedGustMPH,Humidity,HourlyPrecipIn,Conditions,Clouds,dailyrainin,SoftwareType,DateUTC
2013-08-15 00:01:00,58.9,49.5,30.11,WSW,258,2.0,2.0,71,0.00,,,0.00,Wunderground v.1.15,2013-08-15 04:01:00,
2013-08-15 00:06:00,58.8,49.4,30.11,WSW,258,1.0,2.0,71,0.00,,,0.00,Wunderground v.1.15,2013-08-15 04:06:00,
2013-08-15 00:11:00,58.6,49.2,30.11,WSW,258,1.0,1.0,71,0.00,,,0.00,Wunderground v.1.15,2013-08-15 04:11:00,
2013-08-15 00:21:00,58.2,49.2,30.11,WSW,258,1.0,1.0,72,0.00,,,0.00,Wunderground v.1.15,2013-08-15 04:21:00,
2013-08-15 00:26:00,57.9,48.9,30.11,WSW,258,0.0,1.0,72,0.00,,,0.00,Wunderground v.1.15,2013-08-15 04:26:00,
2013-08-15 00:36:00,56.9,48.3,30.11,WSW,258,0.0,1.0,73,0.00,,,0.00,Wunderground v.1.15,2013-08-15 04:36:00,
2013-08-15 00:41:00,56.3,48.1,30.11,WSW,258,0.0,0.0,74,0.00,,,0.00,Wunderground v.1.15,2013-08-15 04:41:00,
2013-08-15 00:46:00,55.7,47.9,30.11,WSW,258,0.0,2.0,75,0.00,,,0.00,Wunderground v.1.15,2013-08-15 04:46:00,
2013-08-15 00:51:00,55.1,48.0,30.11,WSW,258,0.0,0.0,77,0.00,,,0.00,Wunderground v.1.15,2013-08-15 04:51:00,
2013-08-15 01:01:00,54.5,47.8,30.11,WSW,258,0.0,0.0,78,0.00,,,0.00,Wunderground v.1.15,2013-08-15 05:01:00,
2013-08-15 01:06:00,54.2,47.8,30.11,WSW,258,0.0,0.0,79,0.00,,,0.00,Wunderground v.1.15,2013-08-15 05:06:00,
2013-08-15 01:16:00,54.7,48.3,30.11,WSW,258,0.0,1.0,79,0.00,,,0.00,Wunderground v.1.15,2013-08-15 05:16:00,
2013-08-15 01:26:00,55.8,48.7,30.11,West,267,2.0,5.0,77,0.00,,,0.00,Wunderground v.1.15,2013-08-15 05:26:00,
2013-08-15 01:31:00,56.1,48.6,30.11,West,263,2.0,2.0,76,0.00,,,0.00,Wunderground v.1.15,2013-08-15 05:31:00,
2013-08-15 01:36:00,56.2,48.4,30.11,West,263,2.0,2.0,75,0.00,,,0.00,Wunderground v.1.15,2013-08-15 05:36:00,
2013-08-15 01:46:00,56.1,48.6,30.11,WSW,242,3.0,5.0,76,0.00,,,0.00,Wunderground v.1.15,2013-08-15 05:46:00,
2013-08-15 01:51:00,56.0,48.5,30.11,West,266,3.0,4.0,76,0.00,,,0.00,Wunderground v.1.15,2013-08-15 05:51:00,
2013-08-15 02:01:00,55.8,48.3,30.11,West,267,3.0,3.0,76,0.00,,,0.00,Wunderground v.1.15,2013-08-15 06:01:00,
2013-08-15 02:11:00,55.4,48.3,30.11,West,267,2.0,2.0,77,0.00,,,0.00,Wunderground v.1.15,2013-08-15 06:11:00,
2013-08-15 02:16:00,55.3,48.2,30.11,West,267,2.0,2.0,77,0.00,,,0.00,Wunderground v.1.15,2013-08-15 06:16:00,
2013-08-15 02:21:00,55.1,48.0,30.10,West,267,2.0,3.0,77,0.00,,,0.00,Wunderground v.1.15,2013-08-15 06:21:00,
2013-08-15 02:26:00,55.0,47.9,30.10,West,267,2.0,3.0,77,0.00,,,0.00,Wunderground v.1.15,2013-08-15 06:26:00,
2013-08-15 02:31:00,54.8,47.7,30.11,West,269,3.0,3.0,77,0.00,,,0.00,Wunderground v.1.15,2013-08-15 06:31:00,
2013-08-15 02:36:00,54.6,47.5,30.10,West,269,3.0,3.0,77,0.00,,,0.00,Wunderground v.1.15,2013-08-15 06:36:00,
2013-08-15 02:46:00,54.1,47.7,30.10,West,269,2.0,2.0,79,0.00,,,0.00,Wunderground v.1.15,2013-08-15 06:46:00,
2013-08-15 02:51:00,54.0,47.6,30.10,West,269,2.0,3.0,79,0.00,,,0.00,Wunderground v.1.15,2013-08-15 06:51:00,
2013-08-15 02:56:00,53.8,47.4,30.10,West,269,2.0,3.0,79,0.00,,,0.00,Wunderground v.1.15,2013-08-15 06:56:00,
2013-08-15 03:06:00,53.6,47.2,30.10,West,269,2.0,2.0,79,0.00,,,0.00,Wunderground v.1.15,2013-08-15 07:06:00,
2013-08-15 03:11:00,53.6,47.2,30.10,West,269,2.0,2.0,79,0.00,,,0.00,Wunderground v.1.15,2013-08-15 07:11:00,
2013-08-15 03:21:00,53.5,47.1,30.10,West,269,2.0,2.0,79,0.00,,,0.00,Wunderground v.1.15,2013-08-15 07:21:00,
2013-08-15 03:26:00,52.6,45.9,30.10,West,269,2.0,2.0,78,0.00,,,0.00,Wunderground v.1.15,2013-08-15 07:26:00,
2013-08-15 10:35:00,64.0,54.8,30.11,West,277,0.0,0.0,72,0.00,,,0.00,Wunderground v.1.15,2013-08-15 14:35:00,
2013-08-15 10:45:00,64.8,54.8,30.11,West,277,1.0,1.0,70,0.00,,,0.00,Wunderground v.1.15,2013-08-15 14:45:00,
2013-08-15 10:51:00,65.2,55.2,30.11,West,277,1.0,1.0,70,0.00,,,0.00,Wunderground v.1.15,2013-08-15 14:51:00,
2013-08-15 11:01:00,65.9,55.0,30.11,West,277,1.0,4.0,68,0.00,,,0.00,Wunderground v.1.15,2013-08-15 15:01:00,
2013-08-15 11:10:00,66.5,53.9,30.10,West,277,1.0,3.0,64,0.00,,,0.00,Wunderground v.1.15,2013-08-15 15:10:00,
2013-08-15 11:26:00,68.3,55.6,30.10,West,277,1.0,1.0,64,0.00,,,0.00,Wunderground v.1.15,2013-08-15 15:26:00,
2013-08-15 11:36:00,69.5,55.5,30.10,West,259,2.0,5.0,61,0.00,,,0.00,Wunderground v.1.15,2013-08-15 15:36:00,
2013-08-15 11:45:00,69.2,55.6,30.10,West,271,4.0,4.0,62,0.00,,,0.00,Wunderground v.1.15,2013-08-15 15:45:00,
2013-08-15 11:51:00,69.3,55.3,30.10,WSW,256,4.0,5.0,61,0.00,,,0.00,Wunderground v.1.15,2013-08-15 15:51:00,
2013-08-15 12:01:00,69.8,55.7,30.10,WSW,250,3.0,3.0,61,0.00,,,0.00,Wunderground v.1.15,2013-08-15 16:01:00,
2013-08-15 12:10:00,70.1,56.5,30.10,NW,307,4.0,4.0,62,0.00,,,0.00,Wunderground v.1.15,2013-08-15 16:10:00,
2013-08-15 12:25:00,69.9,56.3,30.09,West,263,4.0,5.0,62,0.00,,,0.00,Wunderground v.1.15,2013-08-15 16:25:00,
2013-08-15 12:31:00,70.3,56.7,30.09,West,259,4.0,6.0,62,0.00,,,0.00,Wunderground v.1.15,2013-08-15 16:31:00,
2013-08-15 12:41:00,70.5,56.9,30.09,West,269,4.0,4.0,62,0.00,,,0.00,Wunderground v.1.15,2013-08-15 16:41:00,
2013-08-15 12:50:00,70.7,56.6,30.08,WNW,291,3.0,3.0,61,0.00,,,0.00,Wunderground v.1.15,2013-08-15 16:50:00,
2013-08-15 12:56:00,70.6,56.5,30.08,WSW,244,4.0,11.0,61,0.00,,,0.00,Wunderground v.1.15,2013-08-15 16:56:00,
2013-08-15 13:05:00,70.5,55.9,30.08,WNW,286,4.0,5.0,60,0.00,,,0.00,Wunderground v.1.15,2013-08-15 17:05:00,
2013-08-15 13:15:00,71.0,57.3,30.07,West,265,3.0,5.0,62,0.00,,,0.00,Wunderground v.1.15,2013-08-15 17:15:00,
2013-08-15 13:20:00,71.1,57.4,30.07,West,268,3.0,5.0,62,0.00,,,0.00,Wunderground v.1.15,2013-08-15 17:20:00,
2013-08-15 13:30:00,72.2,58.5,30.07,West,264,5.0,5.0,62,0.00,,,0.00,Wunderground v.1.15,2013-08-15 17:30:00,
2013-08-15 13:36:00,72.5,58.7,30.07,WNW,283,4.0,6.0,62,0.00,,,0.00,Wunderground v.1.15,2013-08-15 17:36:00,
2013-08-15 13:46:00,73.7,58.0,30.06,NNW,331,2.0,2.0,58,0.00,,,0.00,Wunderground v.1.15,2013-08-15 17:46:00,
2013-08-15 13:55:00,73.6,56.9,30.06,West,262,4.0,4.0,56,0.00,,,0.00,Wunderground v.1.15,2013-08-15 17:55:00,
2013-08-15 14:00:00,73.2,56.6,30.06,West,267,4.0,5.0,56,0.00,,,0.00,Wunderground v.1.15,2013-08-15 18:00:00,
2013-08-15 14:05:00,72.8,56.7,30.05,WSW,255,4.0,7.0,57,0.00,,,0.00,Wunderground v.1.15,2013-08-15 18:05:00,
2013-08-15 14:15:00,73.0,57.3,30.05,NW,313,4.0,5.0,58,0.00,,,0.00,Wunderground v.1.15,2013-08-15 18:15:00,
2013-08-15 14:26:00,72.7,57.5,30.05,WNW,282,2.0,3.0,59,0.00,,,0.00,Wunderground v.1.15,2013-08-15 18:26:00,
2013-08-15 14:35:00,72.8,58.6,30.05,WNW,291,3.0,5.0,61,0.00,,,0.00,Wunderground v.1.15,2013-08-15 18:35:00,
2013-08-15 14:41:00,73.5,57.8,30.05,WSW,240,4.0,5.0,58,0.00,,,0.00,Wunderground v.1.15,2013-08-15 18:41:00,
2013-08-15 14:51:00,72.2,55.6,30.05,West,265,6.0,6.0,56,0.00,,,0.00,Wunderground v.1.15,2013-08-15 18:51:00,
2013-08-15 14:56:00,71.9,56.3,30.05,West,273,5.0,6.0,58,0.00,,,0.00,Wunderground v.1.15,2013-08-15 18:56:00,
2013-08-15 15:06:00,72.0,53.4,30.04,West,267,5.0,7.0,52,0.00,,,0.00,Wunderground v.1.15,2013-08-15 19:06:00,
2013-08-15 15:16:00,74.0,55.3,30.04,West,274,4.0,7.0,52,0.00,,,0.00,Wunderground v.1.15,2013-08-15 19:16:00,
2013-08-15 15:36:00,73.1,53.9,30.04,WNW,300,9.0,11.0,51,0.00,,,0.00,Wunderground v.1.15,2013-08-15 19:36:00,
2013-08-15 15:45:00,73.3,53.0,30.04,WSW,257,7.0,10.0,49,0.00,,,0.00,Wunderground v.1.15,2013-08-15 19:45:00,
2013-08-15 15:51:00,73.6,52.7,30.04,West,263,7.0,7.0,48,0.00,,,0.00,Wunderground v.1.15,2013-08-15 19:51:00,
2013-08-15 16:06:00,74.6,53.6,30.03,NW,315,7.0,8.0,48,0.00,,,0.00,Wunderground v.1.15,2013-08-15 20:06:00,
2013-08-15 16:16:00,74.0,52.5,30.03,West,277,10.0,10.0,47,0.00,,,0.00,Wunderground v.1.15,2013-08-15 20:16:00,
2013-08-15 16:26:00,74.4,52.3,30.03,West,269,8.0,8.0,46,0.00,,,0.00,Wunderground v.1.15,2013-08-15 20:26:00,
2013-08-15 16:35:00,74.8,52.0,30.02,NNW,335,5.0,9.0,45,0.00,,,0.00,Wunderground v.1.15,2013-08-15 20:35:00,
2013-08-15 16:41:00,74.9,51.5,30.02,WNW,289,7.0,9.0,44,0.00,,,0.00,Wunderground v.1.15,2013-08-15 20:41:00,
2013-08-15 16:46:00,74.7,50.7,30.03,WNW,282,8.0,9.0,43,0.00,,,0.00,Wunderground v.1.15,2013-08-15 20:46:00,
2013-08-15 16:55:00,74.6,50.6,30.02,West,278,6.0,9.0,43,0.00,,,0.00,Wunderground v.1.15,2013-08-15 20:55:00,
2013-08-15 17:01:00,74.0,51.3,30.03,WNW,284,7.0,7.0,45,0.00,,,0.00,Wunderground v.1.15,2013-08-15 21:01:00,
2013-08-15 17:10:00,74.9,51.5,30.02,WNW,294,7.0,11.0,44,0.00,,,0.00,Wunderground v.1.15,2013-08-15 21:10:00,
2013-08-15 17:15:00,75.1,49.8,30.03,West,263,8.0,11.0,41,0.00,,,0.00,Wunderground v.1.15,2013-08-15 21:15:00,
2013-08-15 17:25:00,75.3,50.6,30.02,NW,309,7.0,9.0,42,0.00,,,0.00,Wunderground v.1.15,2013-08-15 21:25:00,
2013-08-15 17:30:00,74.4,50.4,30.02,WNW,289,8.0,8.0,43,0.00,,,0.00,Wunderground v.1.15,2013-08-15 21:30:00,
2013-08-15 17:35:00,74.8,50.8,30.02,NW,304,7.0,8.0,43,0.00,,,0.00,Wunderground v.1.15,2013-08-15 21:35:00,
2013-08-15 17:45:00,75.2,49.9,30.02,WNW,302,6.0,7.0,41,0.00,,,0.00,Wunderground v.1.15,2013-08-15 21:45:00,
2013-08-15 17:55:00,75.6,52.8,30.03,NW,311,4.0,5.0,45,0.00,,,0.00,Wunderground v.1.15,2013-08-15 21:55:00,
2013-08-15 18:01:00,75.7,50.3,30.02,WSW,253,8.0,8.0,41,0.00,,,0.00,Wunderground v.1.15,2013-08-15 22:01:00,
2013-08-15 18:10:00,75.7,51.6,30.03,West,271,7.0,7.0,43,0.00,,,0.00,Wunderground v.1.15,2013-08-15 22:10:00,
2013-08-15 18:16:00,75.8,49.8,30.03,WSW,254,6.0,8.0,40,0.00,,,0.00,Wunderground v.1.15,2013-08-15 22:16:00,
2013-08-15 18:25:00,75.8,49.8,30.03,WNW,291,5.0,9.0,40,0.00,,,0.00,Wunderground v.1.15,2013-08-15 22:25:00,
2013-08-15 18:30:00,74.9,50.3,30.03,West,269,6.0,6.0,42,0.00,,,0.00,Wunderground v.1.15,2013-08-15 22:30:00,
2013-08-15 18:35:00,74.4,50.4,30.03,West,277,5.0,6.0,43,0.00,,,0.00,Wunderground v.1.15,2013-08-15 22:35:00,
2013-08-15 18:45:00,75.0,50.3,30.03,WNW,286,4.0,7.0,42,0.00,,,0.00,Wunderground v.1.15,2013-08-15 22:45:00,
2013-08-15 18:51:00,75.1,51.1,30.03,WNW,296,5.0,5.0,43,0.00,,,0.00,Wunderground v.1.15,2013-08-15 22:51:00,
2013-08-15 19:01:00,74.6,51.2,30.03,WNW,292,5.0,5.0,44,0.00,,,0.00,Wunderground v.1.15,2013-08-15 23:01:00,
2013-08-15 19:11:00,74.1,50.2,30.03,WNW,296,4.0,4.0,43,0.00,,,0.00,Wunderground v.1.15,2013-08-15 23:11:00,
2013-08-15 19:20:00,73.9,51.8,30.03,NW,316,3.0,3.0,46,0.00,,,0.00,Wunderground v.1.15,2013-08-15 23:20:00,
2013-08-15 19:26:00,73.6,52.1,30.03,NW,316,2.0,3.0,47,0.00,,,0.00,Wunderground v.1.15,2013-08-15 23:26:00,
2013-08-15 19:35:00,73.7,51.6,30.03,NW,316,1.0,2.0,46,0.00,,,0.00,Wunderground v.1.15,2013-08-15 23:35:00,
2013-08-15 19:41:00,73.9,51.2,30.03,NW,316,1.0,3.0,45,0.00,,,0.00,Wunderground v.1.15,2013-08-15 23:41:00,
2013-08-15 19:51:00,74.1,50.8,30.03,NW,316,2.0,2.0,44,0.00,,,0.00,Wunderground v.1.15,2013-08-15 23:51:00,
2013-08-15 20:05:00,73.9,50.6,30.04,NW,315,1.0,1.0,44,0.00,,,0.00,Wunderground v.1.15,2013-08-16 00:05:00,
2013-08-15 20:11:00,73.7,51.6,30.04,NW,316,1.0,1.0,46,0.00,,,0.00,Wunderground v.1.15,2013-08-16 00:11:00,
2013-08-15 20:20:00,72.9,53.7,30.04,NW,315,0.0,0.0,51,0.00,,,0.00,Wunderground v.1.15,2013-08-16 00:20:00,
2013-08-15 20:26:00,72.4,53.8,30.04,NW,315,0.0,0.0,52,0.00,,,0.00,Wunderground v.1.15,2013-08-16 00:26:00,
2013-08-15 20:31:00,72.0,53.9,30.04,NW,315,0.0,0.0,53,0.00,,,0.00,Wunderground v.1.15,2013-08-16 00:31:00,
2013-08-15 20:40:00,71.1,53.1,30.04,NW,315,0.0,0.0,53,0.00,,,0.00,Wunderground v.1.15,2013-08-16 00:40:00,
2013-08-15 20:50:00,70.2,53.3,30.04,NW,315,0.0,0.0,55,0.00,,,0.00,Wunderground v.1.15,2013-08-16 00:50:00,
2013-08-15 21:00:00,69.2,52.8,30.04,NW,315,0.0,0.0,56,0.00,,,0.00,Wunderground v.1.15,2013-08-16 01:00:00,
2013-08-15 21:10:00,68.3,52.9,30.05,NW,315,0.0,1.0,58,0.00,,,0.00,Wunderground v.1.15,2013-08-16 01:10:00,
2013-08-15 21:16:00,67.7,52.9,30.05,NW,315,0.0,1.0,59,0.00,,,0.00,Wunderground v.1.15,2013-08-16 01:16:00,
2013-08-15 21:25:00,66.5,52.6,30.05,WSW,257,1.0,1.0,61,0.00,,,0.00,Wunderground v.1.15,2013-08-16 01:25:00,
2013-08-15 21:31:00,66.1,52.3,30.05,WSW,252,2.0,2.0,61,0.00,,,0.00,Wunderground v.1.15,2013-08-16 01:31:00,
2013-08-15 21:41:00,65.6,52.2,30.05,WSW,246,1.0,2.0,62,0.00,,,0.00,Wunderground v.1.15,2013-08-16 01:41:00,
2013-08-15 21:50:00,65.3,51.9,30.05,SW,235,2.0,2.0,62,0.00,,,0.00,Wunderground v.1.15,2013-08-16 01:50:00,
2013-08-15 22:00:00,65.1,52.2,30.05,SW,214,2.0,3.0,63,0.00,,,0.00,Wunderground v.1.15,2013-08-16 02:00:00,
2013-08-15 22:05:00,64.9,52.0,30.05,SW,226,2.0,3.0,63,0.00,,,0.00,Wunderground v.1.15,2013-08-16 02:05:00,
2013-08-15 22:16:00,65.4,51.6,30.05,SW,224,2.0,2.0,61,0.00,,,0.00,Wunderground v.1.15,2013-08-16 02:16:00,
2013-08-15 22:25:00,66.4,52.1,30.05,WSW,239,2.0,4.0,60,0.00,,,0.00,Wunderground v.1.15,2013-08-16 02:25:00,
2013-08-15 22:31:00,66.7,51.9,30.06,SW,236,2.0,3.0,59,0.00,,,0.00,Wunderground v.1.15,2013-08-16 02:31:00,
2013-08-15 22:36:00,66.8,52.0,30.05,WSW,237,2.0,3.0,59,0.00,,,0.00,Wunderground v.1.15,2013-08-16 02:36:00,
2013-08-15 22:45:00,66.7,52.4,30.05,West,265,2.0,4.0,60,0.00,,,0.00,Wunderground v.1.15,2013-08-16 02:45:00,
2013-08-15 22:51:00,66.5,52.2,30.05,WSW,256,2.0,4.0,60,0.00,,,0.00,Wunderground v.1.15,2013-08-16 02:51:00,
2013-08-15 23:00:00,66.0,52.2,30.06,WSW,248,2.0,2.0,61,0.00,,,0.00,Wunderground v.1.15,2013-08-16 03:00:00,
2013-08-15 23:06:00,65.7,52.3,30.06,West,268,2.0,5.0,62,0.00,,,0.00,Wunderground v.1.15,2013-08-16 03:06:00,
2013-08-15 23:15:00,65.1,52.2,30.06,West,266,3.0,3.0,63,0.00,,,0.00,Wunderground v.1.15,2013-08-16 03:15:00,
2013-08-15 23:21:00,64.8,52.3,30.06,West,273,2.0,3.0,64,0.00,,,0.00,Wunderground v.1.15,2013-08-16 03:21:00,
2013-08-15 23:30:00,64.5,52.0,30.06,West,261,3.0,4.0,64,0.00,,,0.00,Wunderground v.1.15,2013-08-16 03:30:00,
2013-08-15 23:41:00,64.0,52.4,30.06,WSW,252,4.0,5.0,66,0.00,,,0.00,Wunderground v.1.15,2013-08-16 03:41:00,
2013-08-15 23:50:00,63.5,51.9,30.07,West,269,4.0,5.0,66,0.00,,,0.00,Wunderground v.1.15,2013-08-16 03:50:00,
2013-08-15 23:55:00,63.2,52.1,30.06,West,265,4.0,5.0,67,0.00,,,0.00,Wunderground v.1.15,2013-08-16 03:55:00,